Date String (YYYY-MM-DD hh:mm:ss) UTC,Instrument flags,Ambient pressure (hPa),Sample flow (lpm),Bypass flow (lpm),Sample temperature (°C),Ambient temperature (°C),ASC tube jacket temperature (°C),LED temperature (°C),Box temperature (°C),Sample RH (%),Span deviation,Mass concentration (μg/m³),Mass concentration (μg/m³),Mass concentration (μg/m³)
DateTimeUTC,F1_M11,P_M11,Q1_M11,Q2_M11,T1_M11,T2_M11,T3_M11,T4_M11,T5_M11,U1_M11,ZSPAN_M11,X0_M11,X2_M11,X1_M11
2021-09-03 13:00:00,,0829.0,5.02,0.00,30.1,29.2,00.0,39.1,31.9,28.7,0001.8,0020.98,0016.87,0016.35
2021-09-03 13:01:00,,0829.0,4.99,0.00,30.1,29.2,00.0,39.2,31.9,28.7,0001.8,0020.35,0016.85,0016.34
2021-09-03 13:02:00,,0829.0,4.99,0.00,30.2,29.3,00.0,39.2,31.9,28.8,0001.8,0020.09,0016.79,0016.31
2021-09-03 13:03:00,,0829.0,5.01,0.00,30.2,29.3,00.0,39.2,32.0,28.7,0001.8,0019.99,0016.79,0016.31
2021-09-03 13:04:00,,0829.0,4.99,0.00,30.2,29.3,00.0,39.2,32.0,28.6,0001.7,0020.01,0016.80,0016.30
2021-09-03 13:05:00,,0828.9,5.00,0.00,30.2,29.4,00.0,39.2,32.0,29.2,0001.7,0019.95,0016.79,0016.29
2021-09-03 13:06:00,,0829.0,5.00,0.00,30.2,29.4,00.0,39.2,32.0,28.9,0001.6,0019.76,0016.75,0016.30
2021-09-03 13:07:00,,0829.0,5.01,0.00,30.3,29.4,00.0,39.3,32.0,28.7,0001.5,0019.76,0016.72,0016.27
2021-09-03 13:08:00,,0829.0,5.00,0.00,30.2,27.9,00.0,39.3,31.7,28.7,0001.5,0019.52,0016.68,0016.23
2021-09-03 13:09:00,,0829.0,5.00,0.00,30.0,26.5,00.0,39.2,31.3,28.9,0001.6,0019.77,0016.67,0016.22
2021-09-03 13:10:00,,0829.0,5.00,0.00,29.9,26.5,00.0,39.2,31.3,29.1,0001.7,0019.95,0016.69,0016.22
2021-09-03 13:11:00,,0829.0,4.99,0.00,29.8,26.9,00.0,39.1,31.3,29.2,0001.7,0020.04,0016.68,0016.21
2021-09-03 13:12:00,,0829.1,5.00,0.00,29.8,27.3,00.0,39.1,31.4,29.2,0001.6,0020.06,0016.72,0016.22
2021-09-03 13:13:00,,0829.0,4.99,0.00,29.8,27.7,00.0,39.1,31.4,29.2,0001.5,0020.11,0016.76,0016.24
2021-09-03 13:14:00,,0829.1,5.00,0.00,29.8,28.0,00.0,39.0,31.5,29.2,0001.5,0020.18,0016.75,0016.27
2021-09-03 13:15:00,,0829.1,5.01,0.00,29.8,28.2,00.0,39.0,31.5,29.1,0001.5,0021.32,0016.75,0016.27
2021-09-03 13:16:00,,0829.2,5.00,0.00,29.9,28.4,00.0,39.0,31.5,29.2,0001.4,0021.95,0016.72,0016.25
2021-09-03 13:17:00,,0829.2,5.01,0.00,29.9,28.5,00.0,39.0,31.6,29.1,0001.5,0022.04,0016.71,0016.22
2021-09-03 13:18:00,,0829.2,4.99,0.00,29.9,28.7,00.0,39.0,31.6,29.0,0001.7,0022.04,0016.72,0016.25
2021-09-03 13:19:00,,0829.2,5.00,0.00,29.9,28.8,00.0,39.0,31.7,28.9,0001.7,0022.08,0016.76,0016.27
2021-09-03 13:20:00,,0829.2,5.02,0.00,29.9,28.8,00.0,39.0,31.7,28.4,0001.5,0021.92,0016.81,0016.29
2021-09-03 13:21:00,,0829.2,4.99,0.00,30.0,28.9,00.0,39.0,31.8,28.8,0001.7,0021.92,0016.84,0016.33
2021-09-03 13:22:00,,0829.3,5.01,0.00,30.0,29.0,00.0,39.1,31.8,28.9,0001.6,0021.77,0016.87,0016.34
2021-09-03 13:23:00,,0829.2,5.01,0.00,30.0,29.0,00.0,39.1,31.8,28.9,0001.7,0021.74,0016.85,0016.35
2021-09-03 13:24:00,,0829.2,4.99,0.00,30.0,29.1,00.0,39.1,31.8,28.8,0001.7,0022.03,0016.89,0016.36
2021-09-03 13:25:00,,0829.3,4.99,0.00,30.1,29.1,00.0,39.1,31.8,28.7,0001.6,0022.19,0016.91,0016.36
2021-09-03 13:26:00,,0829.2,5.00,0.00,30.1,29.2,00.0,39.1,31.9,28.6,0001.5,0021.30,0016.93,0016.37
2021-09-03 13:27:00,,0829.2,5.01,0.00,30.1,29.2,00.0,39.1,31.9,28.6,0001.5,0020.78,0017.00,0016.42
2021-09-03 13:28:00,,0829.2,5.00,0.00,30.1,29.3,00.0,39.1,31.9,28.5,0001.4,0020.82,0017.05,0016.45
2021-09-03 13:29:00,,0829.2,5.01,0.00,30.1,29.3,00.0,39.2,31.9,28.4,0001.3,0020.93,0017.10,0016.45
2021-09-03 13:30:00,,0829.3,4.99,0.00,30.2,29.3,00.0,39.2,32.0,28.5,0001.3,0021.00,0017.13,0016.46
2021-09-03 13:31:00,,0829.3,4.99,0.00,30.2,29.4,00.0,39.2,32.0,28.3,0001.5,0020.76,0017.10,0016.46
2021-09-03 13:32:00,,0829.3,5.01,0.00,30.2,29.4,00.0,39.2,32.0,28.2,0001.4,0020.59,0017.10,0016.48
2021-09-03 13:33:00,,0829.2,5.01,0.00,30.2,29.4,00.0,39.2,32.0,28.1,0001.7,0020.52,0017.09,0016.50
2021-09-03 13:34:00,,0829.2,5.00,0.00,30.2,28.2,00.0,39.2,31.7,28.2,0001.7,0020.47,0017.12,0016.51
2021-09-03 13:35:00,,0829.2,5.00,0.00,30.0,26.7,00.0,39.2,31.4,28.4,0001.9,0020.23,0017.10,0016.53
2021-09-03 13:36:00,,0829.3,4.99,0.00,29.9,26.5,00.0,39.2,31.2,28.6,0002.1,0020.29,0017.09,0016.52
2021-09-03 13:37:00,,0829.2,5.00,0.00,29.8,26.9,00.0,39.1,31.3,28.7,0002.1,0020.25,0017.12,0016.54
2021-09-03 13:38:00,,0829.3,5.01,0.00,29.8,27.3,00.0,39.1,31.3,28.8,0002.2,0020.13,0017.08,0016.52
2021-09-03 13:39:00,,0829.4,5.00,0.00,29.8,27.7,00.0,39.1,31.4,28.8,0002.2,0020.26,0017.02,0016.51
2021-09-03 13:40:00,,0829.4,4.99,0.00,29.8,27.9,00.0,39.0,31.4,28.8,0002.1,0020.61,0016.99,0016.51
2021-09-03 13:41:00,,0829.3,5.01,0.00,29.8,28.2,00.0,39.0,31.5,28.8,0002.0,0020.56,0016.97,0016.51
2021-09-03 13:42:00,,0829.3,4.99,0.00,29.8,28.4,00.0,39.0,31.5,28.9,0001.9,0020.69,0017.00,0016.52
2021-09-03 13:43:00,,0829.2,5.02,0.00,29.9,28.5,00.0,39.0,31.6,28.8,0002.0,0020.90,0017.03,0016.51
2021-09-03 13:44:00,,0829.3,4.99,0.00,29.9,28.6,00.0,39.0,31.6,28.8,0002.0,0020.93,0017.04,0016.51
2021-09-03 13:45:00,,0829.3,5.01,0.00,29.9,28.7,00.0,39.0,31.7,28.9,0001.9,0020.93,0017.04,0016.51
2021-09-03 13:46:00,,0829.4,5.00,0.00,29.9,28.8,00.0,39.0,31.7,29.0,0001.8,0021.64,0017.03,0016.50
2021-09-03 13:47:00,,0829.4,4.99,0.00,29.9,28.9,00.0,39.0,31.7,29.4,0001.8,0021.38,0017.01,0016.48
2021-09-03 13:48:00,,0829.4,5.00,0.00,30.0,28.9,00.0,39.0,31.7,29.6,0002.0,0021.33,0017.04,0016.48
2021-09-03 13:49:00,,0829.4,4.99,0.00,30.0,29.0,00.0,39.1,31.8,30.7,0001.9,0021.28,0017.03,0016.48
2021-09-03 13:50:00,,0829.3,5.00,0.00,30.0,29.0,00.0,39.1,31.8,30.5,0002.0,0021.21,0017.05,0016.46
2021-09-03 13:51:00,,0829.4,5.01,0.00,30.0,29.1,00.0,39.1,31.9,30.4,0002.2,0020.82,0017.08,0016.45
2021-09-03 13:52:00,,0829.4,5.00,0.00,30.1,29.1,00.0,39.1,31.9,29.9,0002.3,0020.81,0017.08,0016.44
2021-09-03 13:53:00,,0829.4,5.01,0.00,30.1,29.2,00.0,39.1,31.9,30.1,0002.3,0020.69,0017.04,0016.42
2021-09-03 13:54:00,,0829.4,5.01,0.00,30.1,29.2,00.0,39.1,31.9,30.3,0002.3,0020.43,0016.98,0016.39
2021-09-03 13:55:00,,0829.4,5.00,0.00,30.1,29.3,00.0,39.1,31.9,30.3,0002.1,0020.54,0016.98,0016.37
2021-09-03 13:56:00,,0829.4,5.00,0.00,30.2,29.3,00.0,39.2,32.0,30.4,0002.0,0021.18,0017.00,0016.36
2021-09-03 13:57:00,,0829.5,5.00,0.00,30.2,29.3,00.0,39.2,32.0,30.3,0001.9,0020.81,0017.00,0016.35
2021-09-03 13:58:00,,0829.5,5.00,0.00,30.2,29.0,00.0,39.2,31.9,29.6,0001.8,0021.09,0017.01,0016.35
2021-09-03 13:59:00,,0829.4,5.01,0.00,30.1,27.2,00.0,39.2,31.5,29.2,0001.8,0021.06,0016.96,0016.33
